DELTA 1 DEB, 2118

Orbit data source: Space-Track

DELTA 1 DEB, 2118 is space debris in SSO originally from a launch on Thu, 03 Feb 1966 UTC launched from the Air Force Eastern Test Range (AFETR). Debris objects in space refer to the collection of defunct objects orbiting the Earth. Examples of debris include non-operational satellites, rocket bodies, and fragments generated from explosions, collisions, or faulty payload assembly.

Loading next visibility...
Identifier
2118, 1966-008D
Orbit
SSO
Country
Flag of USUS
Related business
Manufacturer
Unknown
Mission
Spacecraft
Bus & Motor
Unknown
Mass
~1 kg wet, ~1 kg dry
Launch date (UTC)
1966-02-03 (60 years ago)
Launch vehicle
Unknown
Launch site
Air Force Eastern Test Range (AFETR)
Object type
Payload
Rocket body
Debris
Shape & HBR
Unknown
Radar Cross Section
Medium (>0.1 m² and <1 m²)

Expand to show TLE details & history
Last TLE update: 1 day ago

TLE from 1 day ago
0 DELTA 1 DEB
1 02118U 66008D   26165.33406265  .00000535  00000-0  14572-3 0  9996
2 02118  98.0593 297.5842 0124762 231.3325 127.6653 14.46907519135416
Epoch: 2026-06-14T08:01Z
TLE epoch observation values (Epoch: 2026-06-14T08:01:03.012Z)
Latitude
-0.00011°
Longitude
-85.31463°
Altitude
793.669 km
Speed
7.428 km/s
True Right ascension
19h 50m 20s
True Declination
0° 00' 00"
Sunlit
Object was in full shadow at epoch
Visualization orbit readout
Latitude
Unknown
Longitude
Unknown
Altitude
Unknown
Speed
Unknown
Apparent Right ascension
Unknown
Apparent Declination
Unknown
Sunlit
N/A
Visualization observer readout
Local Sidereal Time
19:27:22
Azimuth
Unknown
Elevation
Unknown
Doppler factor
Unknown
Orbital elements
Apogee altitude
821.577 km
Perigee altitude
644.14 km
Semi-major axis
7,110.996 km
Eccentricity
0.01248
Inclination
98.0593°
RAAN
297.5842°
Arg. of periapsis
231.3325°
True anomaly
128.78626°
Mean anomaly
127.6653°
Eccentric anomaly
128.22685°
Mean motion
3.61949 °/min
Orbital period
99.46 mins
BSTAR
0.00014572
Loading maneuver chart data...
Computing Atmospheric mass density...
Loading historical data...
Loading historical data...
Loading historical data...
Loading historical data...
Loading historical data...
Loading historical data...
Loading historical data...
Other satellites on launch #8 in the year 1966 (1966-02-03 UTC)

Documentation

Showing up to 5 results
|